This is the latest recevied weather packets stored in our database for station/object RN1M-13. If no packets are shown the sender has not sent any weather packets the latest 10 day(s).
| Time | Temp. | Humidity | Pressure | Rain* | Wind** | Luminosity | Snow |
|---|---|---|---|---|---|---|---|
| 1777813282 | 12.22° C | 100% | 1005.3 hPa | - | - | - | - |
| 1777812384 | 11.67° C | 100% | 1005 hPa | - | - | - | - |
| 1777811484 | 10.56° C | 100% | 1004.7 hPa | - | - | - | - |
| 1777810581 | 8.89° C | 100% | 1004.9 hPa | - | - | - | - |
| 1777809681 | 10.56° C | 100% | 1004.9 hPa | - | - | - | - |
| 1777808790 | 11.11° C | 100% | 1005.2 hPa | - | - | - | - |
| 1777807881 | 12.22° C | 100% | 1005.7 hPa | - | - | - | - |
| 1777806981 | 12.78° C | 100% | 1005.7 hPa | - | - | - | - |
| 1777806083 | 12.78° C | 100% | 1005.7 hPa | - | - | - | - |
| 1777805191 | 13.33° C | 100% | 1005.4 hPa | - | - | - | - |
| 1777804291 | 15° C | 100% | 1005.4 hPa | - | - | - | - |
| 1777803391 | 13.89° C | 100% | 1005.4 hPa | - | - | - | - |
| 1777802491 | 13.33° C | 100% | 1005.6 hPa | - | - | - | - |
| 1777801590 | 12.78° C | 100% | 1005.7 hPa | - | - | - | - |
| 1777800690 | 13.33° C | 100% | 1005.9 hPa | - | - | - | - |
| 1777799790 | 14.44° C | 100% | 1005.6 hPa | - | - | - | - |
| 1777798890 | 13.89° C | 100% | 1005 hPa | - | - | - | - |
| 1777797990 | 15° C | 100% | 1005 hPa | - | - | - | - |
| 1777797090 | 15.56° C | 100% | 1004.8 hPa | - | - | - | - |
| 1777796190 | 16.11° C | 100% | 1004.6 hPa | - | - | - | - |
| 1777795292 | 16.67° C | 96% | 1004.5 hPa | - | - | - | - |
| 1777794397 | 18.33° C | 71% | 1004.3 hPa | - | - | - | - |
| 1777793497 | 20° C | 61% | 1004 hPa | - | - | - | - |
| 1777792597 | 19.44° C | 62% | 1004.1 hPa | - | - | - | - |
| 1777791697 | 19.44° C | 68% | 1004.1 hPa | - | - | - | - |
* Rain since midnight (hover to see other rain measurements)
** Current wind speed in m/s (hover to see current wind gust speed)